This is the latest recevied weather packets stored in our database for station/object DB0TGO-14. If no packets are shown the sender has not sent any weather packets the latest 1 day(s).
| Time | Temp. | Humidity | Pressure | Rain* | Wind** | Luminosity | Snow |
|---|---|---|---|---|---|---|---|
| 1777988633 | 20.56° C | 67% | 1009 hPa | 0 mm | 1.34 m/s, 338° | - | - |
| 1777988590 | 20.56° C | 67% | 1009 hPa | 0 mm | 1.34 m/s, 22° | - | - |
| 1777988490 | 20.56° C | 67% | 1009 hPa | 0 mm | 1.34 m/s, 292° | - | - |
| 1777988388 | 20.56° C | 66% | 1009 hPa | 0 mm | 1.34 m/s, 338° | - | - |
| 1777988275 | 20.56° C | 64% | 1009 hPa | 0 mm | 1.34 m/s, 90° | - | - |
| 1777988166 | 20.56° C | 66% | 1009 hPa | 0 mm | 1.34 m/s, 292° | - | - |
| 1777988070 | 20.56° C | 68% | 1009.1 hPa | 0 mm | 1.34 m/s, 68° | - | - |
| 1777987955 | 20.56° C | 68% | 1009 hPa | 0 mm | 1.34 m/s, 270° | - | - |
| 1777987838 | 20.56° C | 67% | 1009.1 hPa | 0 mm | 1.34 m/s, 90° | - | - |
| 1777987735 | 20.56° C | 67% | 1009.1 hPa | 0 mm | 1.79 m/s, 270° | - | - |
| 1777987696 | 20.56° C | 68% | 1009 hPa | 0 mm | 1.34 m/s, 292° | - | - |
| 1777987630 | 21.11° C | 68% | 1009.1 hPa | 0 mm | 1.34 m/s, 270° | - | - |
| 1777987510 | 21.11° C | 67% | 1009.1 hPa | 0 mm | 1.34 m/s, 0° | - | - |
| 1777987414 | 21.11° C | 67% | 1009.1 hPa | 0 mm | 1.34 m/s, 292° | - | - |
| 1777987295 | 21.11° C | 66% | 1009 hPa | 0 mm | 0.89 m/s, 292° | - | - |
| 1777987185 | 21.11° C | 66% | 1009 hPa | 0 mm | 0.89 m/s, 292° | - | - |
| 1777987085 | 21.11° C | 61% | 1009.1 hPa | 0 mm | 0.45 m/s, 292° | - | - |
| 1777986986 | 21.11° C | 61% | 1009 hPa | 0 mm | 0.45 m/s, 202° | - | - |
| 1777986875 | 21.11° C | 61% | 1009.1 hPa | 0 mm | 0.45 m/s, 202° | - | - |
| 1777986770 | 20.56° C | 62% | 1009 hPa | 0 mm | 0.45 m/s, 202° | - | - |
| 1777986722 | 20.56° C | 62% | 1009 hPa | 0 mm | 0.45 m/s, 202° | - | - |
| 1777986658 | 20.56° C | 61% | 1009.1 hPa | 0 mm | 0.89 m/s, 202° | - | - |
| 1777986550 | 21.11° C | 62% | 1009.1 hPa | 0 mm | 1.34 m/s, 202° | - | - |
| 1777986438 | 21.11° C | 62% | 1009.1 hPa | 0 mm | 1.34 m/s, 270° | - | - |
| 1777986341 | 21.11° C | 63% | 1009.1 hPa | 0 mm | 1.34 m/s, 270° | - | - |
* Rain latest hour (hover to see other rain measurements)
** Current wind speed in m/s (hover to see current wind gust speed)